Weather History for Clovis, NM

Change the Weather History Date:

Wednesday, September 26, 2012

  Actual Average Record
Temperature  
Mean Temperature 70 °F -  
Max Temperature 84 °F 79 °F 94 °F (1929)
Min Temperature 57 °F 50 °F 34 °F (1970)
Cooling Degree Days 6    
Growing Degree Days 20 (Base 50)    
Moisture  
Dew Point 44 °F    
Average Humidity 40    
Maximum Humidity 77    
Minimum Humidity 25    
Precipitation  
Precipitation 0.00 in - - ()
Sea Level Pressure  
Sea Level Pressure 30.07 in    
Wind  
Wind Speed 10 mph (ENE)    
Max Wind Speed 17 mph    
Max Gust Speed 22 mph    
Visibility 10 miles    
Events      
Averages and records for this station are not official NWS values.
T = Trace of Precipitation, MM = Missing Value Source: NWS Daily Summary

Daily Weather History Graph

Daily Weather History Graph

Search for Another Location

Airport:

Trip Planner

Search our weather history database for the weather conditions in past years. The results will help you decide how hot, cold, wet, or windy it might be!

Date:

Astronomy

Sep. 26, 2012 Rise Set
Actual Time 6:43 AM MDT 6:42 PM MDT
Civil Twilight 6:18 AM MDT 7:07 PM MDT
Nautical Twilight 5:49 AM MDT 7:36 PM MDT
Astronomical Twilight 5:19 AM MDT 8:06 PM MDT
Moon 4:37 PM MDT (9/26) 3:19 AM MDT (9/26)
Length of Visible Light 12h 49m
Length of Day
11h 59m
Waxing Gibbous, 88% of the Moon is Illuminated
Sep 26
Waxing Gibbous
Sep 29
Full
Oct 8
Last Quarter
Oct 15
New
Oct 21
First Quarter

Hourly Weather History & Observations

Time (MDT) Temp. Dew Point Humidity Pressure Visibility Wind Dir Wind Speed Gust Speed Precip Events Conditions
12:15 AM 60.8 °F 33.8 °F 36% 30.00 in 10.0 mi NNW 4.6 mph - N/A   Clear
12:35 AM 62.6 °F 33.8 °F 34% 30.01 in 10.0 mi North 8.1 mph - N/A   Clear
12:55 AM 62.6 °F 35.6 °F 37% 30.01 in 10.0 mi North 6.9 mph - N/A   Clear
1:15 AM 64.4 °F 35.6 °F 34% 30.01 in 10.0 mi NNW 6.9 mph - N/A   Partly Cloudy
1:35 AM 64.4 °F 35.6 °F 34% 30.01 in 10.0 mi NNE 6.9 mph - N/A   Partly Cloudy
2:15 AM 60.8 °F 35.6 °F 39% 30.02 in 10.0 mi ESE 9.2 mph - N/A   Clear
2:35 AM 59.0 °F 35.6 °F 42% 30.02 in 10.0 mi ESE 4.6 mph - N/A   Clear
2:55 AM 60.8 °F 35.6 °F 39% 30.03 in 10.0 mi North 8.1 mph - N/A   Partly Cloudy
3:15 AM 59.0 °F 35.6 °F 42% 30.01 in 10.0 mi NE 8.1 mph - N/A   Clear
3:35 AM 57.2 °F 35.6 °F 44% 30.01 in 10.0 mi East 10.4 mph - N/A   Clear
3:55 AM 60.8 °F 35.6 °F 39% 30.01 in 10.0 mi ENE 10.4 mph - N/A   Clear
4:15 AM 64.4 °F 35.6 °F 34% 30.03 in 10.0 mi North 12.7 mph - N/A   Mostly Cloudy
4:35 AM 64.4 °F 37.4 °F 37% 30.02 in 10.0 mi NE 11.5 mph - N/A   Scattered Clouds
4:55 AM 64.4 °F 37.4 °F 37% 30.01 in 10.0 mi NE 12.7 mph - N/A   Scattered Clouds
5:15 AM 64.4 °F 37.4 °F 37% 30.02 in 10.0 mi NNW 12.7 mph - N/A   Scattered Clouds
5:35 AM 64.4 °F 37.4 °F 37% 30.02 in 10.0 mi North 11.5 mph - N/A   Partly Cloudy
5:55 AM 60.8 °F 37.4 °F 42% 30.03 in 10.0 mi North 11.5 mph - N/A   Clear
6:35 AM 57.2 °F 37.4 °F 48% 30.04 in 10.0 mi North 11.5 mph - N/A   Clear
6:55 AM 57.2 °F 37.4 °F 48% 30.05 in 10.0 mi North 9.2 mph - N/A   Clear
7:15 AM 59.0 °F 37.4 °F 45% 30.05 in 10.0 mi NNE 9.2 mph - N/A   Clear
7:35 AM 60.8 °F 39.2 °F 45% 30.05 in 10.0 mi North 9.2 mph - N/A   Clear
7:55 AM 64.4 °F 39.2 °F 40% 30.05 in 10.0 mi NNE 8.1 mph - N/A   Clear
8:15 AM 66.2 °F 41.0 °F 40% 30.06 in 10.0 mi NE 9.2 mph - N/A   Clear
8:35 AM 69.8 °F 41.0 °F 35% 30.08 in 10.0 mi NE 11.5 mph - N/A   Clear
8:55 AM 71.6 °F 42.8 °F 35% 30.08 in 10.0 mi NE 12.7 mph - N/A   Clear
9:15 AM 73.4 °F 44.6 °F 36% 30.09 in 10.0 mi NE 13.8 mph - N/A   Clear
9:35 AM 73.4 °F 42.8 °F 33% 30.11 in 10.0 mi NNE 17.3 mph - N/A   Clear
9:55 AM 75.2 °F 44.6 °F 34% 30.11 in 10.0 mi NE 17.3 mph - N/A   Clear
10:15 AM 73.4 °F 44.6 °F 36% 30.11 in 10.0 mi NE 13.8 mph - N/A   Clear
10:35 AM 75.2 °F 44.6 °F 34% 30.11 in 10.0 mi NNE 15.0 mph - N/A   Clear
10:55 AM 75.2 °F 46.4 °F 36% 30.11 in 10.0 mi NE 16.1 mph - N/A   Clear
11:15 AM 75.2 °F 46.4 °F 36% 30.10 in 10.0 mi NNE 16.1 mph - N/A   Clear
11:35 AM 78.8 °F 46.4 °F 32% 30.11 in 10.0 mi NE 11.5 mph 20.7 mph N/A   Clear
11:55 AM 78.8 °F 46.4 °F 32% 30.10 in 10.0 mi East 12.7 mph 19.6 mph N/A   Clear
12:15 PM 78.8 °F 46.4 °F 32% 30.09 in 10.0 mi ENE 17.3 mph 21.9 mph N/A   Clear
12:35 PM 77.0 °F 46.4 °F 34% 30.10 in 10.0 mi East 10.4 mph 18.4 mph N/A   Partly Cloudy
12:55 PM 78.8 °F 46.4 °F 32% 30.10 in 10.0 mi East 12.7 mph - N/A   Partly Cloudy
1:15 PM 80.6 °F 48.2 °F 32% 30.08 in 10.0 mi ENE 10.4 mph - N/A   Clear
1:35 PM 82.4 °F 48.2 °F 30% 30.07 in 10.0 mi ENE 12.7 mph - N/A   Clear
1:55 PM 80.6 °F 46.4 °F 30% 30.07 in 10.0 mi ENE 4.6 mph - N/A   Clear
2:15 PM 82.4 °F 46.4 °F 28% 30.07 in 10.0 mi East 9.2 mph - N/A   Clear
2:35 PM 82.4 °F 46.4 °F 28% 30.07 in 10.0 mi South 9.2 mph - N/A   Clear
2:55 PM 82.4 °F 44.6 °F 26% 30.07 in 10.0 mi SE 12.7 mph 18.4 mph N/A   Clear
3:15 PM 84.2 °F 46.4 °F 27% 30.06 in 10.0 mi South 13.8 mph - N/A   Clear
3:35 PM 82.4 °F 44.6 °F 26% 30.05 in 10.0 mi SSE 8.1 mph - N/A   Clear
3:55 PM 82.4 °F 42.8 °F 25% 30.04 in 10.0 mi South 10.4 mph - N/A   Clear
4:15 PM 80.6 °F 42.8 °F 26% 30.04 in 10.0 mi SW 3.5 mph - N/A   Clear
4:35 PM 82.4 °F 42.8 °F 25% 30.03 in 10.0 mi West 5.8 mph - N/A   Clear
4:55 PM 82.4 °F 42.8 °F 25% 30.02 in 10.0 mi West 4.6 mph - N/A   Clear
5:15 PM 82.4 °F 42.8 °F 25% 30.02 in 10.0 mi West 6.9 mph - N/A   Clear
5:35 PM 82.4 °F 42.8 °F 25% 30.03 in 10.0 mi West 8.1 mph - N/A   Clear
5:55 PM 82.4 °F 42.8 °F 25% 30.04 in 10.0 mi WNW 4.6 mph - N/A   Partly Cloudy
6:15 PM 80.6 °F 42.8 °F 26% 30.05 in 10.0 mi SSW 8.1 mph - N/A   Partly Cloudy
6:35 PM 77.0 °F 42.8 °F 29% 30.06 in 10.0 mi SSW 6.9 mph - N/A   Clear
6:55 PM 75.2 °F 46.4 °F 36% 30.07 in 10.0 mi SE 13.8 mph 21.9 mph N/A   Partly Cloudy
7:35 PM 71.6 °F 51.8 °F 50% 30.09 in 10.0 mi SE 15.0 mph 18.4 mph N/A   Partly Cloudy
7:55 PM 69.8 °F 51.8 °F 53% 30.10 in 10.0 mi SSE 11.5 mph - N/A   Clear
8:15 PM 68.0 °F 51.8 °F 56% 30.11 in 10.0 mi SE 12.7 mph - N/A   Clear
8:35 PM 66.2 °F 50.0 °F 56% 30.12 in 10.0 mi East 8.1 mph - N/A   Clear
8:55 PM 64.4 °F 51.8 °F 64% 30.12 in 10.0 mi SE 11.5 mph - N/A   Clear
9:15 PM 64.4 °F 51.8 °F 64% 30.13 in 10.0 mi SE 13.8 mph - N/A   Clear
9:35 PM 64.4 °F 51.8 °F 64% 30.13 in 10.0 mi SE 16.1 mph - N/A   Clear
9:55 PM 64.4 °F 51.8 °F 64% 30.13 in 10.0 mi SE 16.1 mph - N/A   Clear
10:15 PM 64.4 °F 51.8 °F 64% 30.13 in 10.0 mi SE 17.3 mph - N/A   Scattered Clouds
10:35 PM 62.6 °F 53.6 °F 72% 30.13 in 10.0 mi SSE 16.1 mph - N/A   Scattered Clouds
10:55 PM 62.6 °F 53.6 °F 72% 30.13 in 10.0 mi SSE 11.5 mph - N/A   Clear
11:15 PM 62.6 °F 53.6 °F 72% 30.13 in 10.0 mi SSE 10.4 mph 16.1 mph N/A   Partly Cloudy
11:35 PM 62.6 °F 53.6 °F 72% 30.13 in 10.0 mi SSE 8.1 mph - N/A   Scattered Clouds
11:55 PM 60.8 °F 53.6 °F 77% 30.13 in 10.0 mi SSE 6.9 mph - N/A   Clear